User: anonymous   Login
Location: Nantong Television Tower
(32.0188°N, 120.8512°E)
Time: 07:21:53
(UTC+08:00)
Language:

ATLAS 3B CENTAUR R/B - Orbit

View from above orbital plane
View from above orbital plane
View from above satellite
View from above satellite

Ground track
Ground track

The orbit data is extracted from the following two-line orbital elements,

1 28118U 03057B   15215.56389567  .00065735  00000-0  11256-2 0  9991
2 28118 028.1385 354.4964 3561500 055.7174 009.5106 08.36554197228745
Epoch (UTC): 03 August 2015 13:32:00
Eccentricity: 0.3561500
inclination: 28.1385°
perigee height: 221 km
apogee height: 7523 km
right ascension of ascending node: 354.4964°
argument of perigee: 55.7174°
revolutions per day: 8.36554197
mean anomaly at epoch: 9.5106°
orbit number at epoch: 22874

The dashed part of the orbit path shows where the satellite is in the earth's shadow,  

DLR